Weather History for KLFT - July, 2012

Change the Weather History Date:

Wednesday, July 11, 2012

  Actual Average Record
Temperature  
Mean Temperature 79 °F 83 °F  
Max Temperature 84 °F 92 °F 99 °F (1902)
Min Temperature 73 °F 75 °F 63 °F (1894)
Cooling Degree Days 14 18  
Month to date cooling degree days 191 198  
Year to date cooling degree days 1539 1310  
Since 1 June cooling degree days 693 696  
Growing Degree Days 28 (Base 50)    
Moisture  
Dew Point 72 °F    
Average Humidity 80    
Maximum Humidity 94    
Minimum Humidity 65    
Precipitation  
Precipitation 0.57 in 0.22 in 3.84 in (1975)
Month to date precipitation 2.97 2.58  
Year to date precipitation 35.44 32.28  
Sea Level Pressure  
Sea Level Pressure 29.97 in    
Wind  
Wind Speed 4 mph (SW)    
Max Wind Speed 24 mph    
Max Gust Speed 33 mph    
Visibility 8 miles    
Events Rain    
T = Trace of Precipitation, MM = Missing Value Source: NWS Daily Summary

Daily Weather History Graph

Daily Weather History Graph

Search for Another Location

Airport or City:

Trip Planner

Search our weather history database for the weather conditions in past years. The results will help you decide how hot, cold, wet, or windy it might be!

Date:

Astronomy

Jul. 11, 2012 Rise Set
Actual Time 6:14 AM CDT 8:12 PM CDT
Civil Twilight 5:47 AM CDT 8:39 PM CDT
Nautical Twilight 5:14 AM CDT 9:11 PM CDT
Astronomical Twilight 4:39 AM CDT 9:46 PM CDT
Moon 12:35 AM CDT (7/11) 1:58 PM CDT (7/11)
Length of Visible Light 14h 51m
Length of Day
13h 57m
Last Quarter, 44% of the Moon is Illuminated
Jul 11
Last Quarter
Jul 18
New
Jul 26
First Quarter
Aug 1
Full
Aug 9
Last Quarter

Hourly Weather History & Observations

Time (CDT) Temp. Heat Index Dew Point Humidity Pressure Visibility Wind Dir Wind Speed Gust Speed Precip Events Conditions
12:53 AM 75.9 °F - 72.0 °F 87% 29.97 in 10.0 mi SSW 4.6 mph - N/A   Scattered Clouds
1:53 AM 77.0 °F - 72.0 °F 84% 29.95 in 10.0 mi South 4.6 mph - N/A   Mostly Cloudy
2:53 AM 77.0 °F - 73.0 °F 88% 29.94 in 10.0 mi SSE 3.5 mph - N/A   Overcast
3:53 AM 77.0 °F - 72.0 °F 84% 29.94 in 10.0 mi Calm Calm - N/A   Mostly Cloudy
4:53 AM 75.2 °F - 73.4 °F 94% 29.93 in 10.0 mi Calm Calm - N/A   Mostly Cloudy
5:53 AM 75.9 °F - 73.0 °F 91% 29.94 in 10.0 mi Calm Calm - N/A   Mostly Cloudy
6:53 AM 75.9 °F - 73.0 °F 91% 29.94 in 10.0 mi Calm Calm - N/A   Partly Cloudy
7:53 AM 80.1 °F 85.1 °F 75.0 °F 85% 29.95 in 10.0 mi South 5.8 mph - N/A   Overcast
8:47 AM 73.4 °F - 71.6 °F 94% 29.98 in 2.5 mi WSW 19.6 mph 31.1 mph 0.08 in Rain Heavy Rain
8:53 AM 73.9 °F - 71.1 °F 91% 29.99 in 1.8 mi WSW 17.3 mph 31.1 mph 0.14 in Rain Heavy Rain
8:59 AM 73.4 °F - 71.6 °F 94% 29.99 in 3.0 mi WSW 15.0 mph 28.8 mph 0.02 in Rain Heavy Rain
9:18 AM 73.4 °F - 71.6 °F 94% 29.99 in 1.8 mi WSW 16.1 mph 21.9 mph 0.21 in Rain Heavy Rain
9:36 AM 73.4 °F - 71.6 °F 94% 29.99 in 2.5 mi SW 11.5 mph 19.6 mph 0.38 in Rain Heavy Rain
9:43 AM 73.4 °F - 71.6 °F 94% 30.00 in 5.0 mi SW 11.5 mph - 0.40 in Rain Rain
9:53 AM 73.9 °F - 72.0 °F 93% 30.00 in 9.0 mi SW 12.7 mph - 0.41 in Rain Rain
10:00 AM 73.4 °F - 71.6 °F 94% 30.00 in 10.0 mi SW 11.5 mph - 0.01 in Rain Light Rain
10:53 AM 75.9 °F - 73.0 °F 91% 30.02 in 10.0 mi WSW 6.9 mph - 0.02 in Rain Light Rain
11:53 AM 77.0 °F - 72.0 °F 84% 30.01 in 10.0 mi SW 5.8 mph - 0.00 in   Mostly Cloudy
12:53 PM 79.0 °F - 71.1 °F 77% 30.00 in 10.0 mi West 10.4 mph - N/A   Scattered Clouds
1:53 PM 81.0 °F 84.4 °F 70.0 °F 69% 29.99 in 10.0 mi West 9.2 mph - N/A   Clear
2:53 PM 82.9 °F 86.5 °F 69.1 °F 63% 29.97 in 10.0 mi WSW 9.2 mph 20.7 mph N/A   Clear
3:53 PM 84.0 °F 89.0 °F 71.1 °F 65% 29.95 in 10.0 mi SSW 11.5 mph 16.1 mph N/A   Partly Cloudy
4:53 PM 82.0 °F 86.3 °F 71.1 °F 69% 29.94 in 10.0 mi WSW 4.6 mph - N/A   Overcast
5:53 PM 82.0 °F 86.3 °F 71.1 °F 69% 29.94 in 10.0 mi West 3.5 mph - N/A   Mostly Cloudy
6:53 PM 82.0 °F 86.3 °F 71.1 °F 69% 29.95 in 10.0 mi Calm Calm - N/A   Partly Cloudy
7:53 PM 80.1 °F 84.5 °F 73.9 °F 81% 29.96 in 10.0 mi Calm Calm - N/A   Partly Cloudy
8:53 PM 79.0 °F - 75.0 °F 88% 29.97 in 10.0 mi Calm Calm - N/A   Clear
9:53 PM 78.1 °F - 73.9 °F 87% 29.98 in 10.0 mi Calm Calm - N/A   Clear
10:53 PM 78.1 °F - 73.0 °F 84% 29.98 in 10.0 mi Calm Calm - N/A   Clear
11:53 PM 77.0 °F - 73.9 °F 90% 29.97 in 10.0 mi Calm Calm - N/A   Clear